ISS DEB (62376 NORAD) Tracking and Keplerian Element Data

This shows tracking and keplerian element data for the satellite.

Feedback or suggestion? Click here.




ElementValue
Catalog62376
NameISS DEB
Epoch Orbit717
Epoch Day34.80115585
Epoch Year2025
RAAN245.6939
Inclination51.6343
Eccentricity0.0010977
Argument of Perigee187.8858
Mean Anonmoly172.1965
Mean Motion15.61995533
Decay Rate0.00126114
L11 62376U 98067XG 25034.80115585 .00126114 00000+0 13971-2 0 9998
L22 62376 51.6343 245.6939 0010977 187.8858 172.1965 15.61995533 7178



Live tracking and technical data element details for ISS DEB (NORAD 62376). ISS DEB can be tracked NOW for your location showing map with azimuth and elevation plus other details from your city location.







IsCatalogInMostPopularTable: catalog: 62376, numindb: 38
Update: records affected: 1



GetName: 62376 ISS DEB

Hit Count: updated at: Mon, 19 May 2025 02:19:45 GMT